STARLINK-37294, 68559

Orbit data source: Space-Track

STARLINK-37294, 68559 is a payload satellite owned by SpaceX/Seattle (US) in LEO that was launched on Thu, 02 Apr 2026 UTC via an FALCON 9 launch vehicle from the Air Force Eastern Test Range (AFETR). Payload-class satellites include a variety of spacecraft equipped with specific instruments for various scientific and technological missions. These include communications satellites like Starlink; space stations such as the ISS; scientific satellites like the Hubble; Earth observation satellites from companies like Planet Labs, Umbra, and HawkEye 360; GPS; miniature CubeSats for education and research; and military/defense satellites.

Loading next visibility...
Identifier
68559, 2026-070T
Orbit
LEO
Country
Flag of USUS
Related business
Manufacturer
SpaceX/Seattle
Mission
Operational Commercial Communications
Bus & Motor
STARLINK V2MO, Unknown motor
Mass
575 kg wet, ~530 kg dry
Launch date (UTC)
2026-04-02 (5 months ago)
Launch vehicle
FALCON 9
Launch site
Air Force Eastern Test Range (AFETR)
Object type
Payload
Rocket body
Debris
Shape & HBR
Box + 1 Pan, 17.7 m
Radar Cross Section
41.120 m², Large (>1 m²)

Expand to show TLE details & history
Last TLE update: 1 day ago

TLE from 1 day ago
0 STARLINK-37294
1 68559U 26070T   26246.26579846  .00010820  00000-0  33089-3 0  9992
2 68559  53.1587 254.1274 0001408  84.3654 275.7509 15.34401671 23790
Epoch: 2026-09-03T06:22Z
TLE epoch observation values (Epoch: 2026-09-03T06:22:44.986Z)
Latitude
-0.00006°
Longitude
176.03347°
Altitude
463.503 km
Speed
7.636 km/s
True Right ascension
16h 56m 30s
True Declination
0° 00' 00"
Sunlit
Object was in daylight at epoch
Visualization orbit readout
Latitude
Unknown
Longitude
Unknown
Altitude
Unknown
Speed
Unknown
Apparent Right ascension
Unknown
Apparent Declination
Unknown
Sunlit
N/A
Visualization observer readout
Local Sidereal Time
02:17:48
Azimuth
Unknown
Elevation
Unknown
Doppler factor
Unknown
Orbital elements
Apogee altitude
463.919 km
Perigee altitude
461.992 km
Semi-major axis
6,841.092 km
Eccentricity
0.00014
Inclination
53.1587°
RAAN
254.1274°
Arg. of periapsis
84.3654°
True anomaly
275.73485°
Mean anomaly
275.7509°
Eccentric anomaly
275.74287°
Mean motion
3.83579 °/min
Orbital period
93.85 mins
BSTAR
0.00033089
Loading maneuver chart data...
Computing Atmospheric mass density...
Loading historical data...
Loading historical data...
Loading historical data...
Loading historical data...
Loading historical data...
Loading historical data...
Loading historical data...

Documentation

Showing up to 5 results
|